COSMOS 1474

Satellite information

Favourite Embed

Satellite Type and Status

PAYLOADIN ORBIT

Key statistics

Satellite COSMOS 1474 at a glance.

Uptime

15458

Days in orbit

Revolutions

≈ 12.6

Per day

Orbit

LEO

Low Earth Orbit

Inclination

74.0

Latest

Satellite identification and parameters

Extended collection of information and parameters for COSMOS 1474.

Object identification

Identified? True

Debris? False

Object name: COSMOS 1474

International designator: 1983-069B

Object number (NORAD): 14172

Object ID (CCSDS): 14172

Country: COMMONWEALTH OF INDEPENDENT STATES (CIS)

Current information (Y/N): Y

RCS size: MEDIUM

Orbital parameters

Period: 114.588 minutes

Inclination: 74.0293 deg

SMA: 7814.851 km

Apoapsis: 1462.947 km

Periapsis: 1410.484 km

RAAN: 20.6955 deg

Eccentricy: 0.00335665

Argument of periapsis: 343.4676 deg

Mean anomaly: 87.3744 deg

Mean motion: 12.56671408 rev/day

Mean motion (dot): -0.00000011 rev/day2

B* drag term: 0.000034424229 1/REarth

Two-line elements (TLE)

Creation date: Oct. 31, 2025, 3 a.m.

Reference frame: TEME

Reference center: EARTH

Epoch: Oct. 30, 2025, 3:22 p.m. UTC

TLE line 0: 0 COSMOS 1474

TLE line 1: 1 14172U 83069B 25303.64089449 -.00000011 00000-0 34424-4 0 9992

TLE line 2: 2 14172 74.0293 20.6955 0033566 343.4676 87.3744 12.56671408941440

Live tracking on map

Real-time ground track for satellite COSMOS 1474.

In-orbit conjunctions

There are no conjunctions computed for COSMOS 1474, at the moment. Check back to stay up to date, as we update our databases every day.

Go to all conjunctions

Associated space launch

Military communications satellites

COSMOS 1474 was lifted into orbit during the mission ‘Kosmos-3M | Strela-1M 265-272’, on board a Kosmos-3M space rocket.

The launch took place on July 6, 1983, 12:31 a.m. from 132/2.

For more information about the launch, click the button.

Launch to space Kosmos-3M | Strela-1M 265-272
Kosmos-3M | Strela-1M 265-272

Agency: N/A

Status: Launch Successful

Launch date: July 6, 1983, 12:31 a.m. UTC

Rocket: Kosmos-3M

Launch pad: 132/2

Location: Plesetsk Cosmodrome, Russian Federation

...

Latest news about this satellite

There are no fresh news available about this satellite. Check back as we update our databases every day.


Newsletter sign-up

Weekly statistics, charts and insights to help you stay on top of the space industry.